TimeCST,TemperatureF,Dew PointF,Humidity,Sea Level PressureIn,VisibilityMPH,Wind Direction,Wind SpeedMPH,Gust SpeedMPH,PrecipitationIn,Events,Conditions,WindDirDegrees,DateUTC
12:52 AM,19.0,14.0,81,30.22,-9999.0,SE,18.4,-,0.02,,Unknown,140,2013-02-21 06:52:00
1:52 AM,19.0,14.0,81,30.22,-9999.0,ESE,18.4,-,0.01,,Unknown,120,2013-02-21 07:52:00
2:52 AM,19.0,12.9,77,30.19,-9999.0,ESE,13.8,-,N/A,,Unknown,110,2013-02-21 08:52:00
3:52 AM,19.0,9.0,65,30.17,-9999.0,ESE,11.5,-,N/A,,Unknown,110,2013-02-21 09:52:00
4:52 AM,19.0,9.0,65,30.17,-9999.0,ESE,12.7,-,N/A,,Unknown,120,2013-02-21 10:52:00
5:52 AM,18.0,9.0,68,30.18,-9999.0,ESE,12.7,-,N/A,,Unknown,110,2013-02-21 11:52:00
6:52 AM,18.0,9.0,68,30.20,-9999.0,ESE,12.7,-,N/A,,Unknown,110,2013-02-21 12:52:00
7:52 AM,17.1,10.0,74,30.20,-9999.0,ESE,10.4,-,N/A,,Unknown,120,2013-02-21 13:52:00
8:52 AM,17.1,10.9,77,30.22,-9999.0,ESE,10.4,-,N/A,,Unknown,110,2013-02-21 14:52:00
9:52 AM,17.1,10.9,77,30.22,-9999.0,East,12.7,-,0.01,,Unknown,100,2013-02-21 15:52:00
10:52 AM,18.0,12.0,78,30.23,-9999.0,ESE,11.5,-,0.01,,Unknown,110,2013-02-21 16:52:00
11:52 AM,19.0,12.9,77,30.22,-9999.0,ESE,9.2,-,0.01,,Unknown,110,2013-02-21 17:52:00
12:52 PM,21.0,12.9,71,30.18,-9999.0,ENE,11.5,-,0.01,,Unknown,70,2013-02-21 18:52:00
1:52 PM,21.0,12.0,68,30.14,-9999.0,East,9.2,-,N/A,,Unknown,80,2013-02-21 19:52:00
2:52 PM,21.9,10.9,63,30.12,-9999.0,ENE,10.4,-,N/A,,Unknown,70,2013-02-21 20:52:00
3:52 PM,21.9,12.0,66,30.13,-9999.0,ENE,11.5,-,N/A,,Unknown,70,2013-02-21 21:52:00
4:52 PM,21.0,12.0,68,30.13,-9999.0,ENE,13.8,-,N/A,,Unknown,70,2013-02-21 22:52:00
5:52 PM,19.9,12.9,74,30.14,-9999.0,ENE,9.2,-,N/A,,Unknown,70,2013-02-21 23:52:00
6:52 PM,19.0,14.0,81,30.13,-9999.0,NE,10.4,-,0.03,,Unknown,50,2013-02-22 00:52:00
7:52 PM,19.0,14.0,81,30.13,-9999.0,North,9.2,-,0.01,,Unknown,10,2013-02-22 01:52:00
8:52 PM,18.0,12.9,81,30.13,-9999.0,NE,11.5,-,0.04,,Unknown,40,2013-02-22 02:52:00
9:52 PM,17.1,12.0,81,30.13,-9999.0,NE,8.1,-,0.02,,Unknown,50,2013-02-22 03:52:00
10:52 PM,16.0,10.9,81,30.11,-9999.0,NE,9.2,-,0.01,,Unknown,50,2013-02-22 04:52:00
11:52 PM,15.1,10.9,84,30.10,-9999.0,NNE,9.2,-,0.02,,Unknown,30,2013-02-22 05:52:00